Starlink 4024

operational
NORAD ID: 52599 Int'l Des: 2022-052 Owner: SPXS Country: US Constellation: starlink
LEOCIRCULAR

关于 Starlink 4024

正在加载描述...

实时位置

正在加载3D地球...

即将过境

高度历史

Altitude vs Time

uPlot chart will show altitude changes over time

两行轨道根数

1 52599U 22052B 25343.39636355 .00000427 00000-0 44954-4 0 9991
2 52599 53.2198 324.5702 0001880 97.5420 262.5786 15.08845162198023
Epoch: Dec 9, 2025 • Age: 10 hours

当前状态

高度 542.5 km
速度 7.60 km/s
星下点 40.50°N, 5.97°W
发射日期 May 14, 2022
运行时间 3.5 years
类型 internet

技术详情

分类 Payload
质量 297.00 kg
干质量 275.00 kg
总质量 297.00 kg
长度 0.20 m
直径 2.80 m
跨度 9.00 m
形状 Box + pan
制造商 SPXS
平台类型 Starlink
阶段状态 In Orbit
所有者/国家 SPXS/US

大型星座

Loading constellations...